Missoula, MT

8:43 AM MDT on June 28, 2017 (GMT -0600)
Missoula International

Weather History for KMSO - February, 2013

Change the Weather History Date:

Sunday, February 10, 2013

  Actual Average Record
Temperature  
Mean Temperature 30 °F 29 °F  
Max Temperature 38 °F 37 °F 60 °F (1951)
Min Temperature 22 °F 21 °F -28 °F (1933)
Degree Days  
Heating Degree Days 35 36  
Month to date heating degree days 318 367  
Since 1 July heating degree days 4425 4756  
Cooling Degree Days 0 0  
Month to date cooling degree days 0 0  
Year to date cooling degree days 0 0  
Moisture  
Dew Point 23 °F    
Average Humidity 70    
Maximum Humidity 92    
Minimum Humidity 48    
Precipitation  
Precipitation 0.00 in 0.02 in 0.38 in (1961)
Month to date precipitation 0.08 0.24  
Year to date precipitation 1.23 1.09  
Snow  
Snow 0.60 in - - ()
Month to date snowfall 1.6  
Year to date snowfall 13.0  
Since 1 July snowfall 34.1  
Snow Depth T in    
Sea Level Pressure  
Sea Level Pressure 30.22 in    
Wind  
Wind Speed 4 mph (ESE)    
Max Wind Speed 16 mph    
Max Gust Speed 22 mph    
Visibility 8 miles    
Events Snow    
T = Trace of Precipitation, MM = Missing Value Source: NWS Daily Summary

Daily Weather History Graph

Daily Weather History Graph

Search for Another Location

Airport or City:

Trip Planner

Search our weather history database for the weather conditions in past years. The results will help you decide how hot, cold, wet, or windy it might be!

Date:

Astronomy

Feb. 10, 2013 Rise Set
Actual Time 7:48 AM MST 5:53 PM MST
Civil Twilight 7:16 AM MST 6:25 PM MST
Nautical Twilight 6:40 AM MST 7:01 PM MST
Astronomical Twilight 6:05 AM MST 7:36 PM MST
Moon 7:35 AM MST (2/10) 6:56 PM MST (2/10)
Length of Visible Light 11h 09m
Length of Day
10h 05m
New Moon, 0% of the Moon is Illuminated
Feb 10
New Moon
Feb 17
First Quarter
Feb 25
Full
Mar 4
Last Quarter
Mar 11
New

Hourly Weather History & Observations

Time (MST) Temp. Windchill Dew Point Humidity Pressure Visibility Wind Dir Wind Speed Gust Speed Precip Events Conditions
12:53 AM 28.4 °F 21.2 °F 24.8 °F 86% 30.10 in 10.0 mi WNW 6.9 mph - N/A   Clear
1:53 AM 26.1 °F 16.2 °F 24.1 °F 92% 30.20 in 10.0 mi WNW 10.4 mph - N/A   Mostly Cloudy
2:53 AM 25.0 °F 20.7 °F 23.0 °F 92% 30.22 in 10.0 mi WNW 3.5 mph - N/A   Clear
3:53 AM 26.1 °F - 23.0 °F 88% 30.23 in 10.0 mi Calm Calm - N/A   Overcast
4:53 AM 26.1 °F - 21.9 °F 84% 30.24 in 10.0 mi Calm Calm - N/A   Overcast
5:53 AM 25.0 °F 18.1 °F 21.9 °F 88% 30.25 in 10.0 mi ESE 5.8 mph - N/A   Overcast
6:11 AM 26.6 °F 21.2 °F 23.0 °F 86% 30.15 in 4.0 mi East 4.6 mph - 0.00 in Snow Light Snow
6:15 AM 26.6 °F 21.2 °F 23.0 °F 86% 30.15 in 1.8 mi ESE 4.6 mph - 0.00 in Snow Light Snow
6:38 AM 26.6 °F 21.2 °F 24.8 °F 93% 30.15 in 1.0 mi SE 4.6 mph - 0.00 in Snow Light Snow
6:46 AM 24.8 °F 17.9 °F 24.8 °F 100% 30.15 in 0.8 mi SE 5.8 mph - 0.01 in Snow Light Snow
6:51 AM 24.8 °F 17.9 °F 24.8 °F 100% 30.16 in 1.2 mi SE 5.8 mph - 0.01 in Snow Light Snow
6:53 AM 25.0 °F 18.1 °F 24.1 °F 96% 30.26 in 1.5 mi SE 5.8 mph - 0.01 in Snow Light Snow
6:55 AM 24.8 °F 17.9 °F 24.8 °F 100% 30.16 in 2.0 mi SE 5.8 mph - 0.00 in Snow Light Snow
7:02 AM 24.8 °F 17.9 °F 24.8 °F 100% 30.16 in 3.0 mi SE 5.8 mph - 0.00 in Snow Light Snow
7:25 AM 24.8 °F 20.5 °F 24.8 °F 100% 30.17 in 8.0 mi ESE 3.5 mph - 0.00 in   Overcast
7:42 AM 24.8 °F 20.5 °F 24.8 °F 100% 30.17 in 10.0 mi ESE 3.5 mph - 0.00 in   Overcast
7:53 AM 25.0 °F 20.7 °F 24.1 °F 96% 30.28 in 10.0 mi SE 3.5 mph - 0.00 in   Overcast
8:53 AM 27.0 °F - 25.0 °F 92% 30.28 in 10.0 mi Calm Calm - N/A   Overcast
9:03 AM 28.4 °F - 24.8 °F 86% 30.19 in 10.0 mi Calm Calm - N/A   Overcast
9:53 AM 27.0 °F - 24.1 °F 89% 30.28 in 10.0 mi Calm Calm - N/A   Overcast
10:53 AM 30.0 °F - 25.0 °F 82% 30.28 in 10.0 mi Calm Calm - N/A   Scattered Clouds
11:53 AM 30.0 °F - 25.0 °F 82% 30.27 in 10.0 mi Calm Calm - N/A   Clear
12:12 PM 30.2 °F - 26.6 °F 86% 30.17 in 10.0 mi Calm Calm - N/A   Partly Cloudy
12:53 PM 32.0 °F - 27.0 °F 82% 30.25 in 10.0 mi Calm Calm - N/A   Partly Cloudy
1:53 PM 35.1 °F 30.1 °F 23.0 °F 61% 30.22 in 10.0 mi WSW 5.8 mph - N/A   Clear
2:53 PM 37.9 °F 30.0 °F 19.0 °F 47% 30.22 in 10.0 mi NNE 12.7 mph - N/A   Clear
3:53 PM 37.0 °F 27.7 °F 19.0 °F 48% 30.22 in 10.0 mi North 16.1 mph 21.9 mph N/A   Clear
4:53 PM 36.0 °F 28.0 °F 19.9 °F 52% 30.21 in 10.0 mi North 11.5 mph - N/A   Clear
5:53 PM 33.1 °F 30.0 °F 19.0 °F 56% 30.22 in 10.0 mi NNE 3.5 mph - N/A   Clear
6:53 PM 30.0 °F 24.1 °F 19.0 °F 64% 30.23 in 10.0 mi West 5.8 mph - N/A   Clear
7:53 PM 28.9 °F - 19.9 °F 69% 30.24 in 10.0 mi Calm Calm - N/A   Partly Cloudy
8:53 PM 26.1 °F - 19.0 °F 75% 30.25 in 10.0 mi Calm Calm - N/A   Scattered Clouds
9:53 PM 26.1 °F - 17.1 °F 69% 30.25 in 10.0 mi Calm Calm - N/A   Mostly Cloudy
10:53 PM 26.1 °F - 18.0 °F 71% 30.24 in 10.0 mi Calm Calm - N/A   Mostly Cloudy
11:53 PM 23.0 °F - 18.0 °F 81% 30.24 in 10.0 mi Calm Calm - N/A   Scattered Clouds